Weather History for Seldovia, AK

Change the Weather History Date:

Tuesday, July 2, 2013

  Actual Average (PAHO) Record (PAHO)
Temperature  
Mean Temperature 52 °F -  
Max Temperature 57 °F 59 °F 72 °F (1936)
Min Temperature 48 °F 45 °F 36 °F (1962)
Degree Days  
Heating Degree Days 12    
Growing Degree Days 2 (Base 50)    
Moisture  
Dew Point 45 °F    
Average Humidity 79    
Maximum Humidity 90    
Minimum Humidity 62    
Precipitation  
Precipitation 0.03 in - - ()
Sea Level Pressure  
Sea Level Pressure 29.75 in    
Wind  
Wind Speed 7 mph (South)    
Max Wind Speed 10 mph    
Max Gust Speed 18 mph    
Visibility 10 miles    
Events Rain    
Averages and records for this station are not official NWS values.
T = Trace of Precipitation, MM = Missing Value Source: NWS Daily Summary

Daily Weather History Graph

Daily Weather History Graph

Search for Another Location

Airport:

Trip Planner

Search our weather history database for the weather conditions in past years. The results will help you decide how hot, cold, wet, or windy it might be!

Date:

Astronomy

Jul. 02, 2013 Rise Set
Actual Time 4:56 AM AKDT 11:24 PM AKDT
Civil Twilight 3:29 AM AKDT 12:51 AM AKDT
Nautical Twilight Sun does not rise Sun does not rise
Astronomical Twilight Sun does not rise Sun does not rise
Moon 1:56 AM AKDT (7/2) 6:07 PM AKDT (7/2)
Length of Visible Light 21h 21m
Length of Day
18h 28m
Waning Crescent, 25% of the Moon is Illuminated
Jul 2
Waning Crescent
Jul 7
New
Jul 15
First Quarter
Jul 22
Full
Jul 29
Last Quarter

Hourly Weather History & Observations

Time (AKDT) Temp. Dew Point Humidity Pressure Visibility Wind Dir Wind Speed Gust Speed Precip Events Conditions
12:53 AM 48.0 °F 45.0 °F 89% 29.61 in 10.0 mi Variable 3.5 mph - N/A   Overcast
1:53 AM 48.0 °F 45.0 °F 89% 29.62 in 10.0 mi South 3.5 mph - N/A   Overcast
2:53 AM 48.0 °F 44.1 °F 86% 29.64 in 10.0 mi South 5.8 mph - N/A   Overcast
3:53 AM 48.0 °F 44.1 °F 86% 29.64 in 10.0 mi South 8.1 mph - 0.00 in Rain Light Rain
4:53 AM 48.0 °F 44.1 °F 86% 29.65 in 10.0 mi South 9.2 mph - 0.00 in   Overcast
5:43 AM 48.2 °F 44.6 °F 87% 29.66 in 10.0 mi South 6.9 mph - N/A   Overcast
5:53 AM 48.0 °F 44.1 °F 86% 29.67 in 10.0 mi South 6.9 mph - N/A   Overcast
6:07 AM 48.2 °F 44.6 °F 87% 29.67 in 10.0 mi South 6.9 mph - N/A   Overcast
6:53 AM 48.0 °F 44.1 °F 86% 29.68 in 5.0 mi South 5.8 mph - 0.01 in Rain Light Rain
7:03 AM 48.2 °F 44.6 °F 87% 29.68 in 4.0 mi South 6.9 mph - 0.01 in Rain Light Rain
7:53 AM 48.0 °F 45.0 °F 89% 29.70 in 10.0 mi South 8.1 mph - 0.02 in   Overcast
8:17 AM 48.2 °F 44.6 °F 87% 29.70 in 10.0 mi South 8.1 mph - N/A   Overcast
8:53 AM 48.9 °F 46.0 °F 90% 29.71 in 10.0 mi South 8.1 mph - N/A   Overcast
9:53 AM 51.1 °F 46.9 °F 86% 29.73 in 10.0 mi South 6.9 mph - N/A   Overcast
10:53 AM 55.0 °F 46.9 °F 74% 29.74 in 10.0 mi South 6.9 mph - N/A   Overcast
11:53 AM 53.1 °F 45.0 °F 74% 29.77 in 10.0 mi Variable 6.9 mph - N/A   Overcast
12:53 PM 54.0 °F 46.0 °F 75% 29.78 in 10.0 mi South 6.9 mph - N/A   Overcast
1:53 PM 55.0 °F 46.0 °F 72% 29.79 in 10.0 mi South 10.4 mph 16.1 mph N/A   Overcast
2:53 PM 55.9 °F 46.0 °F 69% 29.81 in 10.0 mi South 9.2 mph 18.4 mph N/A   Overcast
3:53 PM 55.9 °F 46.0 °F 69% 29.82 in 10.0 mi South 10.4 mph - N/A   Overcast
4:53 PM 57.0 °F 45.0 °F 64% 29.82 in 10.0 mi SSW 8.1 mph 18.4 mph N/A   Overcast
5:53 PM 57.9 °F 45.0 °F 62% 29.83 in 10.0 mi South 8.1 mph 18.4 mph N/A   Overcast
6:53 PM 55.0 °F 44.1 °F 67% 29.84 in 10.0 mi South 9.2 mph 17.3 mph N/A   Overcast
7:53 PM 54.0 °F 44.1 °F 69% 29.85 in 10.0 mi South 8.1 mph - N/A   Overcast
8:53 PM 53.1 °F 45.0 °F 74% 29.86 in 10.0 mi SSE 6.9 mph - N/A   Overcast
9:53 PM 53.1 °F 45.0 °F 74% 29.87 in 10.0 mi South 10.4 mph - N/A   Overcast
10:53 PM 52.0 °F 45.0 °F 77% 29.89 in 10.0 mi SSW 3.5 mph - N/A   Overcast
11:53 PM 52.0 °F 45.0 °F 77% 29.91 in 10.0 mi South 6.9 mph - N/A   Overcast